Flag for U.S.A. Weather past 2 weeks in Miami, Florida, U.S.A.

76 °F

Scattered clouds.

Feels Like: 78 °F
Forecast: 72 / 79 °F
Wind: 10 mph from Northeast

Location: Miami International Airport

Current Time: Nov 28, 2015 at 5:44:56 PM

Latest Report: Nov 28, 2015 at 4:53 PM

Visibility: 10 mi

Pressure: 30.03 "Hg

Humidity: 69%

Dew point: 65 °F

Location of MiamiLocation

Historic Weather in Miami — Graph


Miami temperature yesterday

Maximum temperature yesterday: 80 °F (at 11:53 AM)
Minimum temperature yesterday: 70 °F (at 3:53 AM)
Average temperature yesterday: 76 °F

Past Weeks' High & Low Weather Summary

High85 °F (Nov 13, 3:53 PM)100% (Nov 14, 1:53 PM)30.28 "Hg (Nov 14, 1:53 PM)
Low63 °F (Nov 24, 1:53 AM)47% (Nov 24, 10:53 AM)29.80 "Hg (Nov 22, 2:53 PM)
Average76 °F78%30.06 "Hg
* Reported Nov 13 3:53 PM — Nov 28 3:53 PM, Miami, Weather by CustomWeather, © 2015

Note: Actual official high and low records may vary slightly from our data, if they occured in-between our weather recording intervals... More about our weather records


Miami weather history for previous 24 hours

Time TempWeatherWind HumidityBarometerVisibility
3:53 PM
Sat, Nov 28
79 °FScattered clouds.12 mph60%30.03 "Hg10 mi
2:53 PM80 °FScattered clouds.14 mph54%30.04 "Hg10 mi
1:53 PM80 °FScattered clouds.12 mph54%30.05 "Hg10 mi
12:53 PM80 °FScattered clouds.13 mph54%30.06 "Hg10 mi
11:53 AM81 °FScattered clouds.13 mph51%30.10 "Hg10 mi
10:53 AM80 °FScattered clouds.16 mph47%30.12 "Hg10 mi
9:53 AM78 °FScattered clouds.15 mph54%30.12 "Hg10 mi
8:53 AM74 °FScattered clouds.6 mph74%30.12 "Hg10 mi
7:53 AM69 °FScattered clouds.5 mph84%30.11 "Hg10 mi
6:53 AM68 °FScattered clouds.6 mph90%30.10 "Hg10 mi
5:53 AM69 °FPassing clouds.3 mph84%30.09 "Hg10 mi
4:53 AM69 °FPassing clouds.3 mph84%30.09 "Hg10 mi
3:53 AM71 °FPassing clouds.3 mph76%30.08 "Hg10 mi
2:53 AM72 °FPassing clouds.3 mph73%30.08 "Hg10 mi
1:53 AM73 °FClear.6 mph71%30.09 "Hg10 mi
12:53 AM73 °FPassing clouds.3 mph71%30.10 "Hg10 mi
11:53 PM
Fri, Nov 27
73 °FPassing clouds.6 mph69%30.12 "Hg10 mi
10:53 PM74 °FPassing clouds.7 mph67%30.13 "Hg10 mi
9:53 PM75 °FPassing clouds.8 mph64%30.13 "Hg10 mi
8:53 PM75 °FPassing clouds.10 mph64%30.14 "Hg10 mi
7:53 PM76 °FPassing clouds.9 mph60%30.13 "Hg10 mi
6:53 PM76 °FPassing clouds.12 mph62%30.12 "Hg10 mi
5:53 PM76 °FPassing clouds.14 mph62%30.12 "Hg10 mi
Weather by CustomWeather, © 2015

See weather overviewHow to use our weather pages